Overview Statistics Trail Chart Weather Telemetry Raw packets
 

This is the latest recevied weather packets stored in our database for station/object DL6DJ-15. If no packets are shown the sender has not sent any weather packets the latest 10 day(s).

<< 1 2 3 4 5 >>
Time Temp. Humidity Pressure Rain* Wind** Luminosity Snow
1788612579 22.78° C 47% 1023.4 hPa - - - -
1788612279 23.89° C 47% 1023.4 hPa - - - -
1788611979 23.33° C 46% 1023.6 hPa - - - -
1788611678 22.78° C 47% 1023.5 hPa - - - -
1788611378 23.33° C 47% 1023.5 hPa - - - -
1788611077 24.44° C 47% 1023.4 hPa - - - -
1788610777 24.44° C 49% 1023.5 hPa - - - -
1788610477 24.44° C 46% 1023.5 hPa - - - -
1788610176 24.44° C 49% 1023.5 hPa - - - -
1788609876 24.44° C 49% 1023.4 hPa - - - -
1788609576 24.44° C 50% 1023.5 hPa - - - -
1788609275 23.89° C 48% 1023.5 hPa - - - -
1788608975 23.89° C 49% 1023.6 hPa - - - -
1788608674 23.89° C 49% 1023.6 hPa - - - -
1788608374 24.44° C 47% 1023.6 hPa - - - -
1788608074 24.44° C 50% 1023.6 hPa - - - -
1788607773 24.44° C 48% 1023.6 hPa - - - -
1788607473 23.89° C 53% 1023.7 hPa - - - -
1788607173 23.89° C 51% 1023.7 hPa - - - -
1788606872 23.33° C 56% 1023.7 hPa - - - -
1788606572 24.44° C 50% 1023.7 hPa - - - -
1788606271 25° C 53% 1023.8 hPa - - - -
1788605970 24.44° C 52% 1023.8 hPa - - - -
1788605670 23.89° C 54% 1023.8 hPa - - - -
1788605370 23.33° C 59% 1023.8 hPa - - - -

* Rain since midnight (hover to see other rain measurements)
** Current wind speed in m/s (hover to see current wind gust speed)